Location: Oshawa
(43.9000°N, 78.8670°W)
Time: 03:03:41
(UTC-04:00)

Cosmos 1821 Rocket - Pass Details

Date: 29 April 2018
Orbit: 944 x 1006 km, 82.9° (Epoch: 19 September)

Event Time Altitude Azimuth Distance (km) Brightness Sun altitude
Rises 00:04:07 0° 247° (WSW) 3,702 7.0 -29.6°
Reaches altitude 10° 00:08:40 10° 278° (W) 2,745 6.6 -29.8°
Maximum altitude 00:10:57 12° 299° (WNW) 2,595 6.7 -30.0°
Drops below altitude 10° 00:13:13 10° 321° (NW) 2,735 7.1 -30.1°
Sets 00:17:46 0° 351° (N) 3,672 8.2 -30.3°
